Location: Plateau_FTFHS
(35.6000°N, 81.3500°W)
Time: 00:27:36
(UTC-05:00)

Daily predictions for brighter satellites

Satellite Brightness Start Highest point End
(mag) Time Altitude Azimuth Time Altitude Azimuth Time Altitude Azimuth
USA 234 4.3 03:37:14 10° ENE 03:41:54 38° E 03:41:54 38° E
Cosmos 1943 Rocket 4.1 03:51:54 23° NE 03:51:54 23° NE 03:53:57 10° NNE
CZ-4C R/B 4.0 03:54:44 26° E 03:54:44 26° E 03:58:11 10° NE
ADEOS II 3.6 04:11:30 10° NNE 04:14:12 31° NNE 04:14:12 31° NNE
Meteor 1-26 Rocket 4.4 04:41:38 40° S 04:43:44 72° E 04:49:20 10° NNE
Okean 1-7 4.0 04:45:42 35° SE 04:46:50 44° E 04:50:54 10° NNE
Nadezhda 2 Rocket 4.3 04:41:46 10° N 04:47:53 90° W 04:54:03 10° S
Cosmos 1656 Rocket 3.6 04:50:02 64° S 04:50:59 85° ESE 04:56:42 10° NNE
Cosmos 2369 Rocket 4.2 04:56:09 14° NNW 04:56:09 14° NNW 04:57:22 10° N
Meteor 1-31 Rocket 3.5 04:55:29 10° NNE 04:58:26 49° NE 04:58:26 49° NE
GEOS 3 Rocket 3.5 04:55:44 10° SE 05:00:49 84° NE 05:02:58 36° NNW
ATLAS CENTAUR R/B 3.8 04:59:20 43° WNW 05:01:54 62° SW 05:20:24 10° SSE
Cosmos 1417 Rocket 4.4 04:59:41 10° S 05:05:52 90° E 05:12:02 10° N
Lacrosse 5 3.3 05:07:32 23° NNW 05:07:32 23° NNW 05:10:50 10° NNE
Cosmos 1782 Rocket 3.6 05:04:28 10° N 05:08:56 77° E 05:13:20 10° S
Cosmos 1954 Rocket 3.9 05:07:27 10° NNW 05:12:48 89° ENE 05:18:07 10° SSE
Cosmos 1420 Rocket 3.8 05:13:54 27° SSW 05:16:48 81° WNW 05:22:00 10° NNE
Meteor 2-10 Rocket 3.5 05:17:38 49° WSW 05:18:15 52° W 05:23:12 10° N
Atlas 2A Centaur Rocket 4.0 05:21:39 11° S 05:21:39 11° S 05:21:54 10° S
Okean-O 2.6 05:18:23 10° N 05:22:45 58° WNW 05:24:00 41° SW
Cosmos 1833 4.3 05:21:18 32° NW 05:23:25 47° WSW 05:28:44 10° S
Tiangong 1 2.9 05:24:16 21° N 05:24:16 21° N 05:26:04 10° NE
Chunghua 1 4.5 05:23:35 65° SW 05:23:54 70° S 05:27:40 10° ESE
NOAA 6 4.0 05:20:18 10° NNE 05:25:28 82° ESE 05:30:36 10° SSW
USA 234 3.6 05:20:09 10° NNE 05:26:22 48° NW 05:29:16 30° W
Feng Yun 1-1 Rocket 4.3 05:20:40 10° N 05:26:30 66° WNW 05:32:21 10° SSW
ATLAS 5 CENTAUR R/B 3.9 05:27:58 13° NNW 05:27:58 13° NNW 05:29:53 10° N
SJ-6F 4.3 05:27:26 10° N 05:31:33 69° WNW 05:35:37 10° SSW
Cosmos 1943 Rocket 3.7 05:33:28 18° NW 05:33:28 18° NW 05:36:30 10° NNW
Okean 2 Rocket 2.9 05:33:07 10° NNW 05:37:30 67° W 05:41:51 10° S
Thor Agena Rocket 3.5 05:34:10 10° S 05:39:19 61° WSW 05:44:26 10° NNW
Radarsat Rocket 4.2 05:32:37 10° NNE 05:39:43 87° ESE 05:45:58 10° SSW
CZ-4C R/B 2.8 05:39:58 28° W 05:41:42 34° NW 05:47:00 10° NNE
Cosmos 1607 3.9 05:36:39 10° SSW 05:42:44 89° ESE 05:48:56 10° NNE
Cosmos 1452 Rocket 4.4 05:42:34 26° W 05:43:24 27° WNW 05:47:53 10° N
SL-08 R/B 4.5 05:37:11 10° NNW 05:43:27 68° W 05:49:43 10° S
Meteor 1-28 Rocket 4.0 05:40:07 10° SSE 05:43:44 52° ENE 05:47:22 10° N
Cosmos 1023 Rocket 4.5 05:38:34 10° NNW 05:43:45 61° WSW 05:48:55 10° S
ATLAS 3B R/B 2.9 05:38:35 10° SSW 05:46:13 88° WNW 05:53:37 10° NNE
Delta 2 Rocket 3.7 05:44:49 27° WSW 05:47:29 84° S 05:52:50 10° E
Meteor 1-27 Rocket 4.4 05:46:23 10° S 05:52:01 60° E 05:57:48 10° NNE
Lacrosse 5 rocket 3.7 05:50:32 10° N 05:52:50 16° NE 05:55:08 10° ENE
S3M 4.2 05:48:27 10° SSW 05:54:32 47° W 06:00:34 10° N
Meteor 1-20 Rocket 4.1 05:49:37 10° NNW 05:55:15 66° W 06:00:44 10° S
ADEOS II 3.8 05:53:15 10° NNW 05:55:09 14° NW 05:55:09 14° NW
Cosmos 2151 Rocket 3.6 05:52:37 10° N 05:57:09 89° ENE 06:01:36 10° S
CSL-04 Rocket 4.3 05:52:35 10° NNE 05:57:55 60° ESE 06:03:18 10° S
Cosmos 1741 Rocket 3.9 05:53:10 10° NNW 05:58:25 76° WSW 06:03:39 10° S
Cosmos 1553 Rocket 4.4 05:55:30 10° SW 06:01:13 39° WNW 06:07:04 10° N
Meteor 2-11 Rocket 4.4 05:57:19 10° SSW 06:03:22 64° W 06:09:27 10° N
COSMO-SKYMED 1 2.7 06:02:35 10° S 06:06:48 53° W 06:11:04 10° NNW
Cosmos 1606 3.0 06:04:41 10° SSW 06:08:22 44° W 06:12:07 10° N
Cosmos 1782 3.4 06:05:15 10° SW 06:08:50 33° W 06:12:28 10° NNW
Cosmos 1602 4.2 06:08:07 10° N 06:12:03 65° E 06:15:58 10° SSE
Cosmos 2369 3.9 06:06:36 10° SSW 06:12:13 77° ESE 06:17:53 10° NNE
CZ-2C R/B 3.6 06:09:44 10° NNE 06:14:33 50° E 06:19:28 10° S
Cosmos 1140 Rocket 4.3 06:10:18 10° NW 06:14:48 30° W 06:19:18 10° SSW
USA 81 4.5 06:13:51 10° SSW 06:18:45 39° W 06:23:41 10° NNW
Cosmos 2297 Rocket 3.3 06:17:41 10° N 06:23:09 48° ENE 06:28:33 10° SE
Meteor 2-6 Rocket 4.4 06:19:40 10° SSW 06:24:45 43° WNW 06:29:53 10° N
Cosmos 2278 3.7 06:23:04 10° SSW 06:28:41 73° WNW 06:34:21 10° NNE
CSL-04 Debris 4.1 06:24:54 10° N 06:30:19 79° WNW 06:35:41 10° SSW
Cosmos 1346 Rocket 3.9 06:27:57 10° S 06:31:53 51° E 06:35:49 10° NNE
Cosmos 1709 Rocket 4.0 06:29:45 10° NNW 06:35:49 68° W 06:41:54 10° S
